DW1009 Weather Reports


Display with metric or nautical units.
time (UTC)temp
F
wind
direction
speed
MPH
gust
MPH
rain 1hr
in
rain 24hr
in
rain mn
in
humidity
%
barometer
mb
20260904033116 69 340 2.0 4.0 0.00 0.00 0.00 86 1009.5
20260904032116 69 313 1.0 4.0 0.00 0.00 0.00 86 1009.5
20260904031116 70 268 1.0 5.0 0.00 0.00 0.00 85 1009.5
20260904030116 70 343 2.0 5.0 0.00 0.00 0.00 85 1009.5
20260904024115 70 334 1.0 4.0 0.00 0.00 0.00 84 1009.1
20260904023116 70 313 1.0 5.0 0.00 0.00 0.00 84 1009.1
20260904020115 71 268 3.0 7.0 0.00 0.00 0.00 85 1009.3
20260904014115 72 236 3.0 6.0 0.00 0.00 0.00 81 1009.5
20260904013115 73 313 4.0 9.0 0.00 0.00 0.00 80 1009.5
20260904012116 73 223 9.0 9.0 0.00 0.00 0.00 78 1009.6
20260904011116 74 219 3.0 8.0 0.00 0.00 0.00 77 1009.6
20260904010115 74 258 3.0 6.0 0.00 0.00 0.00 76 1009.6
20260904005116 74 288 2.0 10.0 0.00 0.00 0.00 75 1009.7
20260904003115 75 296 1.0 8.0 0.00 0.00 0.00 75 1009.7
20260904001115 76 331 2.0 7.0 0.00 0.00 0.00 74 1009.9
20260904000115 75 300 3.0 10.0 0.00 0.00 0.00 74 1010.0
20260903235115 76 228 4.0 8.0 0.00 0.00 0.00 74 1010.1
20260903234115 76 208 3.0 7.0 0.00 0.00 0.00 74 1010.1
20260903233145 76 234 3.0 9.0 0.00 0.00 0.00 74 1010.1
20260903232115 76 300 4.0 9.0 0.00 0.00 0.00 74 1010.3
20260903231115 76 290 2.0 10.0 0.00 0.00 0.00 73 1010.2
20260903230115 77 216 10.0 10.0 0.00 0.00 0.00 71 1010.3
20260903225115 77 262 3.0 9.0 0.00 0.00 0.00 72 1010.4
20260903224115 77 264 1.0 9.0 0.00 0.00 0.00 72 1010.6
20260903223115 76 262 2.0 9.0 0.00 0.00 0.00 73 1010.6
20260903222115 77 241 3.0 10.0 0.00 0.00 0.00 73 1010.8
20260903221114 77 290 5.0 9.0 0.00 0.00 0.00 74 1010.9
20260903220115 76 298 5.0 10.0 0.00 0.00 0.00 75 1011.0
20260903214115 77 284 6.0 9.0 0.00 0.00 0.00 73 1010.9
20260903213115 77 320 5.0 10.0 0.00 0.00 0.00 73 1011.0
20260903212114 77 227 1.0 10.0 0.00 0.00 0.00 74 1010.9
20260903211115 76 234 5.0 9.0 0.00 0.00 0.00 75 1010.9
20260903210115 77 246 8.0 9.0 0.00 0.00 0.00 73 1011.0
20260903205114 77 183 2.0 11.0 0.00 0.00 0.00 73 1011.0
20260903204115 77 152 4.0 11.0 0.00 0.00 0.00 72 1011.1
20260903203115 77 276 4.0 10.0 0.00 0.00 0.00 73 1011.0
20260903202115 78 229 4.0 7.0 0.00 0.00 0.00 72 1011.1
20260903201115 78 290 5.0 9.0 0.00 0.00 0.00 72 1011.2
20260903200145 78 235 3.0 9.0 0.00 0.00 0.00 72 1011.2
20260903195114 78 188 4.0 7.0 0.00 0.00 0.00 72 1011.3
20260903194115 78 306 4.0 8.0 0.00 0.00 0.00 72 1011.5
20260903193115 77 211 1.0 7.0 0.00 0.00 0.00 73 1011.8
20260903191114 76 284 4.0 9.0 0.00 0.00 0.00 74 1011.8
20260903190144 76 224 5.0 9.0 0.00 0.00 0.00 74 1011.9
20260903185115 76 205 3.0 10.0 0.00 0.00 0.00 75 1012.1
20260903184114 75 234 3.0 8.0 0.00 0.00 0.00 75 1012.2
20260903183114 76 227 5.0 9.0 0.00 0.00 0.00 74 1012.3
20260903182114 76 241 3.0 7.0 0.00 0.00 0.00 74 1012.5
20260903181144 76 157 2.0 7.0 0.00 0.00 0.00 74 1012.5
20260903175144 75 320 3.0 8.0 0.00 0.00 0.00 75 1012.4
20260903174144 74 231 3.0 8.0 0.00 0.00 0.00 75 1012.4
20260903173144 74 217 4.0 7.0 0.00 0.00 0.00 75 1012.5
20260903172114 74 244 4.0 8.0 0.00 0.00 0.00 75 1012.5
20260903171144 73 252 3.0 6.0 0.00 0.00 0.00 77 1012.3
20260903170144 72 253 2.0 5.0 0.00 0.00 0.00 80 1012.3
20260903162114 71 170 2.0 7.0 0.00 0.00 0.00 81 1012.1
20260903161144 71 224 1.0 4.0 0.00 0.00 0.00 81 1012.3
20260903160144 71 266 0.0 5.0 0.00 0.00 0.00 82 1012.2
20260903154144 71 223 1.0 4.0 0.00 0.00 0.00 82 1012.2
20260903153144 70 174 1.0 4.0 0.00 0.00 0.00 83 1012.3
20260903151144 69 141 1.0 4.0 0.00 0.00 0.00 86 1012.2
20260903150144 69 207 2.0 3.0 0.00 0.00 0.00 86 1012.1
20260903145144 69 200 1.0 2.0 0.00 0.00 0.00 85 1012.1
20260903144114 69 191 1.0 3.0 0.00 0.00 0.00 85 1011.9
20260903143144 69 213 2.0 4.0 0.00 0.00 0.00 86 1011.8
20260903141144 68 177 1.0 4.0 0.00 0.00 0.00 87 1011.5
20260903140144 68 190 0.0 4.0 0.00 0.00 0.00 87 1011.4
20260903135114 68 241 1.0 5.0 0.00 0.00 0.00 88 1011.3
20260903134144 67 197 1.0 2.0 0.00 0.00 0.00 89 1011.3
20260903133143 67 158 1.0 2.0 0.00 0.00 0.00 89 1011.3
20260903132113 67 213 1.0 2.0 0.00 0.00 0.00 88 1011.3
20260903131143 68 215 2.0 2.0 0.00 0.00 0.00 89 1011.3
20260903130143 68 188 0.0 3.0 0.00 0.00 0.00 89 1011.2
20260903125144 68 221 3.0 3.0 0.00 0.00 0.00 89 1011.2
20260903124113 68 172 0.0 2.0 0.00 0.00 0.00 89 1011.2
20260903121144 68 193 0.0 2.0 0.00 0.00 0.00 88 1011.3
20260903120143 68 170 0.0 5.0 0.00 0.00 0.00 88 1011.3
20260903115115 68 170 0.0 4.0 0.00 0.00 0.00 88 1011.4
20260903114143 68 167 4.0 4.0 0.00 0.00 0.00 88 1011.6
20260903113143 68 166 1.0 4.0 0.00 0.00 0.00 88 1011.5
20260903110143 68 184 1.0 3.0 0.00 0.00 0.00 90 1011.6
20260903105144 68 214 2.0 4.0 0.00 0.00 0.00 90 1011.6
20260903104143 68 252 0.0 5.0 0.00 0.00 0.00 90 1011.6
20260903103143 68 261 3.0 5.0 0.00 0.00 0.00 90 1011.7
20260903102144 68 242 4.0 5.0 0.00 0.00 0.00 90 1011.7
20260903101113 68 236 3.0 6.0 0.00 0.00 0.00 90 1011.8
20260903100143 68 214 1.0 4.0 0.00 0.00 0.00 90 1011.9
20260903094144 68 213 1.0 3.0 0.00 0.00 0.00 90 1012.1
20260903092113 68 270 1.0 3.0 0.00 0.00 0.00 90 1012.2
20260903091143 68 313 0.0 3.0 0.00 0.00 0.00 90 1012.3
20260903090114 68 230 0.0 2.0 0.00 0.00 0.00 89 1012.4
20260903085113 69 325 0.0 3.0 0.00 0.00 0.00 89 1012.3
20260903084144 69 269 0.0 3.0 0.00 0.00 0.00 89 1012.4
20260903083143 69 84 0.0 2.0 0.00 0.00 0.00 90 1012.5
20260903082143 69 325 1.0 3.0 0.00 0.00 0.00 90 1012.5
20260903081143 69 313 1.0 3.0 0.00 0.00 0.00 89 1012.6
20260903080143 69 272 0.0 3.0 0.00 0.00 0.00 89 1012.6
20260903074143 69 283 2.0 4.0 0.00 0.00 0.00 88 1012.7
20260903073113 69 239 0.0 3.0 0.00 0.00 0.00 88 1012.7
20260903072143 69 273 0.0 5.0 0.00 0.00 0.00 88 1012.7
20260903071113 69 237 0.0 6.0 0.00 0.00 0.00 87 1012.6
20260903070143 69 285 1.0 3.0 0.00 0.00 0.00 88 1012.4
20260903065143 69 299 0.0 7.0 0.00 0.00 0.00 88 1012.5
20260903064113 69 196 0.0 3.0 0.00 0.00 0.00 88 1012.5
20260903063143 69 267 0.0 3.0 0.00 0.00 0.00 87 1012.3
20260903062143 69 246 0.0 3.0 0.00 0.00 0.00 87 1012.3
20260903061143 70 331 1.0 5.0 0.00 0.00 0.00 86 1012.3
20260903055143 70 294 1.0 5.0 0.00 0.00 0.00 84 1012.4
20260903054143 70 270 2.0 7.0 0.00 0.00 0.00 84 1012.4
20260903053143 70 314 2.0 8.0 0.00 0.00 0.00 82 1012.4
20260903052144 70 360 2.0 8.0 0.00 0.00 0.00 83 1012.3
20260903051113 71 339 1.0 8.0 0.00 0.00 0.00 82 1012.2
20260903050143 71 344 4.0 9.0 0.00 0.00 0.00 82 1012.2
20260903045142 71 335 2.0 10.0 0.00 0.00 0.00 81 1012.2
20260903044142 71 285 2.0 12.0 0.00 0.00 0.00 79 1012.1
20260903043143 72 10 2.0 11.0 0.00 0.00 0.00 80 1012.0
20260903042143 72 333 1.0 6.0 0.00 0.00 0.00 79 1012.0
20260903040142 71 185 2.0 6.0 0.00 0.00 0.00 81 1011.8
20260903035113 71 198 1.0 8.0 0.00 0.00 0.00 82 1011.8
20260903034142 71 217 4.0 8.0 0.00 0.00 0.00 83 1011.8